Date String (YYYY-MM-DD hh:mm:ss) UTC,Instrument flags,absolute air pressure of the measurement (hPa),sample flow rate (lpm),inlet stack bypass flow (lpm),air temperature of the measurement (°C),ambient temperature measured by the external sensor (°C),aerosol sample conditioner tube jacket temperature (°C),OPC LED temperature (°C),internal box temperature (°C),relative humidity of the measurement (%),span deviation,mass concentration of particles derived from Lorenz-Mie calculation of OPC scattering (μg/m³),mass concentration of particles derived from Lorenz-Mie calculation of OPC scattering (μg/m³),mass concentration of particles derived from Lorenz-Mie calculation of OPC scattering (μg/m³)
DateTimeUTC,F1_M11,P_M11,Q1_M11,Q2_M11,T1_M11,T2_M11,T3_M11,T4_M11,T5_M11,U1_M11,ZSPAN_M11,X0_M11,X2_M11,X1_M11
2024-01-31 02:00:00,SystemResetWarning,0833.8,5.00,000.00,026.2,025.0,000.0,034.6,027.6,11.9,0004.1,0014.20,0005.12,0004.37
2024-01-31 02:01:00,SystemResetWarning,0833.8,5.00,000.00,026.2,025.0,000.0,034.5,027.6,11.9,0003.9,0013.79,0005.08,0004.38
2024-01-31 02:02:00,SystemResetWarning,0833.8,5.00,000.00,026.2,025.0,000.0,034.5,027.6,11.9,0005.0,0013.02,0005.07,0004.39
2024-01-31 02:03:00,SystemResetWarning,0833.8,4.99,000.00,026.2,025.0,000.0,034.5,027.6,11.9,0004.9,0012.40,0005.06,0004.42
2024-01-31 02:04:00,SystemResetWarning,0833.8,5.00,000.00,026.2,025.0,000.0,034.5,027.6,11.9,0005.0,0011.91,0005.10,0004.44
2024-01-31 02:05:00,SystemResetWarning,0833.9,5.00,000.00,026.2,025.0,000.0,034.5,027.6,11.9,0004.7,0011.94,0005.10,0004.45
2024-01-31 02:06:00,SystemResetWarning,0833.8,4.99,000.00,026.2,025.0,000.0,034.5,027.6,11.9,0004.4,0011.38,0005.06,0004.46
2024-01-31 02:07:00,SystemResetWarning,0833.8,5.00,000.00,026.2,024.9,000.0,034.5,027.6,11.9,0004.2,0011.73,0005.10,0004.47
2024-01-31 02:08:00,SystemResetWarning,0833.8,5.00,000.00,026.2,024.9,000.0,034.5,027.6,11.9,0005.0,0011.68,0005.17,0004.50
2024-01-31 02:09:00,SystemResetWarning,0833.8,5.01,000.00,026.2,024.9,000.0,034.5,027.6,11.9,0004.0,0011.40,0005.21,0004.52
2024-01-31 02:10:00,SystemResetWarning,0833.8,5.01,000.00,026.2,024.9,000.0,034.5,027.6,11.8,0004.6,0011.25,0005.24,0004.52
2024-01-31 02:11:00,SystemResetWarning,0833.8,5.00,000.00,026.2,024.9,000.0,034.5,027.5,11.8,0004.8,0010.76,0005.24,0004.53
2024-01-31 02:12:00,SystemResetWarning,0833.8,5.00,000.00,026.2,024.9,000.0,034.5,027.6,11.8,0005.1,0010.93,0005.30,0004.55
2024-01-31 02:13:00,SystemResetWarning,0833.8,5.00,000.00,026.2,024.9,000.0,034.5,027.5,11.8,0004.9,0011.22,0005.35,0004.56
2024-01-31 02:14:00,SystemResetWarning,0833.8,5.00,000.00,026.2,024.9,000.0,034.5,027.5,11.8,0002.4,0011.58,0005.41,0004.56
2024-01-31 02:15:00,SystemResetWarning,0833.8,4.99,000.00,026.2,024.9,000.0,034.5,027.5,11.8,0001.7,0011.23,0005.40,0004.56
2024-01-31 02:16:00,SystemResetWarning,0833.8,5.01,000.00,026.2,024.9,000.0,034.5,027.5,11.8,0002.6,0010.95,0005.41,0004.55
2024-01-31 02:17:00,SystemResetWarning,0833.9,5.01,000.00,026.2,024.9,000.0,034.5,027.5,11.8,0001.5,0011.03,0005.44,0004.55
2024-01-31 02:18:00,SystemResetWarning,0833.8,5.01,000.00,026.1,024.9,000.0,034.5,027.5,11.8,0000.0,0010.58,0005.42,0004.54
2024-01-31 02:19:00,SystemResetWarning,0833.8,5.00,000.00,026.1,024.9,000.0,034.5,027.5,11.8,0000.0,0010.79,0005.39,0004.54
2024-01-31 02:20:00,SystemResetWarning,0833.8,4.99,000.00,026.1,024.9,000.0,034.5,027.5,11.8,0001.8,0010.66,0005.33,0004.53
2024-01-31 02:21:00,SystemResetWarning,0833.9,5.00,000.00,026.1,024.9,000.0,034.5,027.5,11.8,0001.4,0010.44,0005.32,0004.53
2024-01-31 02:22:00,SystemResetWarning,0833.8,5.00,000.00,026.1,024.9,000.0,034.5,027.5,11.8,0000.4,0010.94,0005.31,0004.52
2024-01-31 02:23:00,SystemResetWarning,0833.8,5.00,000.00,026.1,024.9,000.0,034.5,027.5,11.7,0000.2,0011.16,0005.27,0004.51
2024-01-31 02:24:00,SystemResetWarning,0833.8,5.00,000.00,026.1,024.9,000.0,034.5,027.5,11.7,-000.2,0010.92,0005.23,0004.51
2024-01-31 02:25:00,SystemResetWarning,0833.8,5.00,000.00,026.1,024.9,000.0,034.5,027.5,11.8,-000.1,0011.07,0005.24,0004.51
2024-01-31 02:26:00,SystemResetWarning,0833.8,5.00,000.00,026.1,024.9,000.0,034.5,027.5,11.8,-000.9,0011.18,0005.26,0004.52
2024-01-31 02:27:00,SystemResetWarning,0833.8,5.00,000.00,026.1,024.8,000.0,034.5,027.5,11.8,-001.2,0011.54,0005.26,0004.53
2024-01-31 02:28:00,SystemResetWarning,0833.8,5.00,000.00,026.1,024.8,000.0,034.5,027.5,11.7,-001.1,0011.58,0005.25,0004.55
2024-01-31 02:29:00,SystemResetWarning,0833.8,5.00,000.00,026.1,024.8,000.0,034.4,027.5,11.8,-001.1,0011.66,0005.25,0004.55
2024-01-31 02:30:00,SystemResetWarning,0833.8,5.00,000.00,026.1,024.8,000.0,034.4,027.5,11.7,-000.9,0011.15,0005.24,0004.56
2024-01-31 02:31:00,SystemResetWarning,0833.8,5.00,000.00,026.1,024.8,000.0,034.4,027.5,11.7,-001.3,0011.27,0005.29,0004.57
2024-01-31 02:32:00,SystemResetWarning,0833.9,5.00,000.00,026.1,024.8,000.0,034.4,027.5,11.7,-001.9,0011.79,0005.33,0004.58
2024-01-31 02:33:00,SystemResetWarning,0833.8,5.00,000.00,026.1,024.8,000.0,034.4,027.4,11.7,-001.9,0012.22,0005.33,0004.58
2024-01-31 02:34:00,SystemResetWarning,0833.8,5.00,000.00,026.1,024.8,000.0,034.4,027.4,11.7,-002.1,0012.52,0005.32,0004.58
2024-01-31 02:35:00,SystemResetWarning,0833.9,4.99,000.00,026.1,024.8,000.0,034.4,027.4,11.7,-001.6,0012.62,0005.33,0004.59
2024-01-31 02:36:00,SystemResetWarning,0833.8,4.99,000.00,026.0,024.8,000.0,034.4,027.4,11.7,-000.9,0012.48,0005.30,0004.60
2024-01-31 02:37:00,SystemResetWarning,0833.8,4.99,000.00,026.0,024.8,000.0,034.4,027.4,11.7,0000.3,0012.89,0005.28,0004.61
2024-01-31 02:38:00,SystemResetWarning,0833.8,5.00,000.00,026.0,024.8,000.0,034.4,027.4,11.7,0001.6,0012.61,0005.26,0004.61
2024-01-31 02:39:00,SystemResetWarning,0833.9,5.00,000.00,026.0,024.8,000.0,034.4,027.4,11.7,0003.9,0012.41,0005.29,0004.61
2024-01-31 02:40:00,SystemResetWarning,0833.8,5.01,000.00,026.0,024.8,000.0,034.4,027.4,11.7,0004.6,0012.64,0005.34,0004.63
2024-01-31 02:41:00,SystemResetWarning,0833.9,5.01,000.00,026.0,024.7,000.0,034.4,027.4,11.7,0005.2,0012.77,0005.35,0004.63
2024-01-31 02:42:00,SystemResetWarning,0833.9,4.99,000.00,026.0,024.7,000.0,034.4,027.4,11.7,0005.2,0012.96,0005.35,0004.63
2024-01-31 02:43:00,SystemResetWarning,0833.9,4.99,000.00,026.0,024.7,000.0,034.4,027.4,11.7,0005.0,0012.67,0005.29,0004.63
2024-01-31 02:44:00,SystemResetWarning,0833.8,4.99,000.00,026.0,024.7,000.0,034.4,027.4,11.7,0005.1,0011.96,0005.28,0004.64
2024-01-31 02:45:00,SystemResetWarning,0833.8,5.00,000.00,026.0,024.7,000.0,034.3,027.4,11.7,0004.9,0011.16,0005.30,0004.66
2024-01-31 02:46:00,SystemResetWarning,0833.8,5.01,000.00,026.0,024.7,000.0,034.3,027.4,11.6,0004.8,0011.02,0005.30,0004.68
2024-01-31 02:47:00,SystemResetWarning,0833.9,5.01,000.00,026.0,024.7,000.0,034.3,027.4,11.6,0004.9,0011.14,0005.33,0004.68
2024-01-31 02:48:00,SystemResetWarning,0833.9,5.01,000.00,026.0,024.7,000.0,034.3,027.4,11.6,0004.7,0011.49,0005.34,0004.67
2024-01-31 02:49:00,SystemResetWarning,0833.9,5.01,000.00,026.0,024.7,000.0,034.3,027.3,11.6,0004.2,0011.44,0005.36,0004.67
2024-01-31 02:50:00,SystemResetWarning,0833.8,5.00,000.00,025.9,024.7,000.0,034.3,027.3,11.6,0003.5,0011.23,0005.32,0004.68
2024-01-31 02:51:00,SystemResetWarning,0833.8,5.00,000.00,025.9,024.7,000.0,034.3,027.3,11.6,0003.2,0011.09,0005.27,0004.67
2024-01-31 02:52:00,SystemResetWarning,0833.8,5.00,000.00,025.9,024.7,000.0,034.3,027.3,11.6,0002.5,0011.49,0005.31,0004.66
2024-01-31 02:53:00,SystemResetWarning,0833.8,5.00,000.00,025.9,024.7,000.0,034.3,027.3,11.6,0001.0,0011.49,0005.35,0004.67
2024-01-31 02:54:00,SystemResetWarning,0833.8,5.00,000.00,025.9,024.6,000.0,034.3,027.3,11.6,0000.0,0011.93,0005.36,0004.67
2024-01-31 02:55:00,SystemResetWarning,0833.9,5.00,000.00,025.9,024.6,000.0,034.3,027.3,11.5,0000.1,0012.18,0005.35,0004.66
2024-01-31 02:56:00,SystemResetWarning,0833.9,5.00,000.00,025.9,024.6,000.0,034.3,027.3,11.5,0001.7,0012.62,0005.39,0004.65
2024-01-31 02:57:00,SystemResetWarning,0833.8,5.00,000.00,025.9,024.6,000.0,034.3,027.3,11.5,0000.0,0013.16,0005.42,0004.62
2024-01-31 02:58:00,SystemResetWarning,0833.8,5.00,000.00,025.9,024.6,000.0,034.3,027.3,11.5,0000.0,0013.25,0005.40,0004.62
2024-01-31 02:59:00,SystemResetWarning,0833.9,5.00,000.00,025.9,024.6,000.0,034.3,027.3,11.5,0000.0,0012.55,0005.40,0004.63
